Other Public Products
Issued by NWS Charleston, SC

Current Version | Previous Version | Text Only | Print | Product List | Glossary Off
Versions: 1 2 3 4 5 6 7 8 9 10 11 12 13 14 15 16 17 18 19 20 21 22 23 24 25 26 27 28 29 30 31 32 33 34 35 36 37 38 39 40 41 42 43 44 45 46 47 48 49 50

000
FPUS82 KCHS 170627
OPUCHS

TEST...KCHS/KSAV Gateway Observations...TEST
National Weather Service Charleston SC
100 AM EST SAT FEB 17 2018

NOTE: "fair" indicates few or no clouds below 12,000 feet with no
significant weather and/or obstructions to visibility.

SCZ050-WAZ558-NCZ071-TXZ119-213-PAZ071-DCZ001-FLZ074-172-MI076-
NYZ176-178-MAZ016-IL014-TNZ027-NJZ106-GAZ044-MD014-170700-

...Gateway Observations for Charleston International...

CITY           SKY/WX    TMP DP  RH WIND       PRES   REMARKS
Chas Airport   FAIR      65  59  81 W3        30.10R
6HR MIN TEMP:  65; 6HR MAX TEMP:  70;

Seattle        CLOUDY    46  43  89 SW16      30.14F
6HR MIN TEMP:  46; 6HR MAX TEMP:  47; 6HR PCP:  0.01;

Charlotte      MOCLDY    59  40  49 N14       30.16R
6HR MIN TEMP:  59; 6HR MAX TEMP:  68; 6HR PCP: TRACE;

Dallas DFW     CLOUDY    47  34  60 N7        30.10F
6HR MIN TEMP:  47; 6HR MAX TEMP:  49; 6HR PCP: TRACE;

Dallas Love    CLOUDY    47  37  68 CALM      30.12F
6HR MIN TEMP:  46; 6HR MAX TEMP:  50; 6HR PCP:  0.01;

Philladelphia  MOCLDY    35  22  58 N6        30.25R WCI  30
6HR MIN TEMP:  35; 6HR MAX TEMP:  49;

Wash National  FAIR      39  25  57 NW13      30.28R WCI  31
6HR MIN TEMP:  39; 6HR MAX TEMP:  51;

Baltimore      MOCLDY    35  24  64 W7        30.26R WCI  29
6HR MIN TEMP:  35; 6HR MAX TEMP:  49;

Miami          FAIR      72  65  78 CALM      30.21S
6HR MIN TEMP:  70; 6HR MAX TEMP:  76;

Detroit        FAIR      21  15  78 S6        30.26F WCI  13
6HR MIN TEMP:  20; 6HR MAX TEMP:  30;

Newark         FAIR      33  12  41 NW17      30.20R WCI  22
6HR MIN TEMP:  33; 6HR MAX TEMP:  44;

Laguardia      FAIR      36  16  44 NW16G23   30.20R WCI  26
6HR MIN TEMP:  36; 6HR MAX TEMP:  44;

J F K          FAIR      34  15  46 NW16      30.21R WCI  24
6HR MIN TEMP:  34; 6HR MAX TEMP:  44;

Boston Logan   FAIR      32  18  56 NW13G21   30.13R WCI  22
6HR MIN TEMP:  32; 6HR MAX TEMP:  47;

Ft. Lauderdale FAIR      72  67  84 S3        30.19F
6HR MIN TEMP:  71; 6HR MAX TEMP:  75;

Chicago O`Hare FAIR      20   9  62 W5        30.25R WCI  13
6HR MIN TEMP:  20; 6HR MAX TEMP:  29;

Chicago Midway FAIR      20  11  68 W5        30.26R WCI  13
6HR MIN TEMP:  20; 6HR MAX TEMP:  30;

Houston Bush   CLOUDY    65  60  84 N5        30.09S
6HR MIN TEMP:  65; 6HR MAX TEMP:  76;

Houston Hobby  CLOUDY    67  67 100 SW7       30.08S FOG
6HR MIN TEMP:  67; 6HR MAX TEMP:  76; 6HR PCP: TRACE;

Nashville      MOCLDY    42  36  79 NE6       30.22F
6HR MIN TEMP:  42; 6HR MAX TEMP:  44;

Atlanta        CLOUDY    54  50  86 NW6       30.15S
6HR MIN TEMP:  54; 6HR MAX TEMP:  67; 6HR PCP:  0.02;


$$

GAZ044-118-TXZ119-213-NCZ071-DCZ001-MDZ014-506-PAZ021-071-NJZ106-
NYZ176-178-MAZ106-OHZ011-021-055-MIZ076-KYZ091-ILZ014-INZ047-
MNZ060-ONZ431-170700-

...Gateway Observations for Savannah International...

CITY           SKY/WX    TMP DP  RH WIND       PRES   REMARKS
Savannah Arpt  FAIR      63  58  83 SW6       30.11S
6HR MIN TEMP:  63; 6HR MAX TEMP:  74;

Atlanta        CLOUDY    54  50  86 NW6       30.15S
6HR MIN TEMP:  54; 6HR MAX TEMP:  67; 6HR PCP:  0.02;

Charlotte      MOCLDY    59  40  49 N14       30.16R
6HR MIN TEMP:  59; 6HR MAX TEMP:  68; 6HR PCP: TRACE;

Dallas DFW     CLOUDY    47  34  60 N7        30.10F
6HR MIN TEMP:  47; 6HR MAX TEMP:  49; 6HR PCP: TRACE;

Houston Bush   CLOUDY    65  60  84 N5        30.09S
6HR MIN TEMP:  65; 6HR MAX TEMP:  76;

Wash National  FAIR      39  25  57 NW13      30.28R WCI  31
6HR MIN TEMP:  39; 6HR MAX TEMP:  51;

Wash Dulles    FAIR      36  25  64 NW13      30.27R WCI  27
6HR MIN TEMP:  36; 6HR MAX TEMP:  47;

Baltimore      MOCLDY    35  24  64 W7        30.26R WCI  29
6HR MIN TEMP:  35; 6HR MAX TEMP:  49;

Philadelphia   MOCLDY    35  22  58 N6        30.25R WCI  30
6HR MIN TEMP:  35; 6HR MAX TEMP:  49;

Newark         FAIR      33  12  41 NW17      30.20R WCI  22
6HR MIN TEMP:  33; 6HR MAX TEMP:  44;

Laguardia      FAIR      36  16  44 NW16G23   30.20R WCI  26
6HR MIN TEMP:  36; 6HR MAX TEMP:  44;

J F K          FAIR      34  15  46 NW16      30.21R WCI  24
6HR MIN TEMP:  34; 6HR MAX TEMP:  44;

Boston         FAIR      32  18  56 NW13G21   30.13R WCI  22
6HR MIN TEMP:  32; 6HR MAX TEMP:  47;

Pittsburg      CLOUDY    29  18  63 CALM      30.26R
6HR MIN TEMP:  29; 6HR MAX TEMP:  32;

Akron          CLOUDY    30  18  60 NW5       30.26R WCI  25
6HR MIN TEMP:  30; 6HR MAX TEMP:  31;

Cleveland      CLOUDY    30  20  66 W8        30.29F WCI  22
6HR MIN TEMP:  30; 6HR MAX TEMP:  31;

Cincinnati     CLOUDY    34  27  75 N5        30.26F WCI  30
6HR MIN TEMP:  33; 6HR MAX TEMP:  37;

Columbus       CLOUDY    32  28  83 NE6       30.27F WCI  26
Detroit        FAIR      21  15  78 S6        30.26F WCI  13
6HR MIN TEMP:  20; 6HR MAX TEMP:  30;

Chicago O`Hare FAIR      20   9  62 W5        30.25R WCI  13
6HR MIN TEMP:  20; 6HR MAX TEMP:  29;

Minneapolis    FAIR      20  11  68 S10G21    30.00F WCI   9
6HR MIN TEMP:  13; 6HR MAX TEMP:  20;

Indianapolis   FAIR      28  22  78 CALM      30.26F
6HR MIN TEMP:  28; 6HR MAX TEMP:  35;

Toronto Canada CLEAR     19  10  68 SW5       30.25R WCI  13

$$




USA.gov is the U.S. government's official web portal to all federal, state and local government web resources and services.